This is the latest recevied weather packets stored in our database for station/object KS5S. If no packets are shown the sender has not sent any weather packets the latest 10 day(s).
| Time | Temp. | Humidity | Pressure | Rain* | Wind** | Luminosity | Snow |
|---|---|---|---|---|---|---|---|
| 1777947878 | 25° C | 73% | 1004.2 hPa | 0 mm | - | 0 W/m² | - |
| 1777947575 | 25° C | 73% | 1004.3 hPa | 0 mm | - | 0 W/m² | - |
| 1777947271 | 25° C | 73% | 1004 hPa | 0 mm | - | 0 W/m² | - |
| 1777946967 | 25° C | 73% | 1004.1 hPa | 0 mm | - | 0 W/m² | - |
| 1777946663 | 25° C | 73% | 1004.3 hPa | 0 mm | - | 0 W/m² | - |
| 1777946360 | 25° C | 73% | 1004.1 hPa | 0 mm | - | 0 W/m² | - |
| 1777946057 | 25° C | 73% | 1004.1 hPa | 0 mm | - | 0 W/m² | - |
| 1777945754 | 25° C | 73% | 1003.9 hPa | 0 mm | - | 0 W/m² | - |
| 1777945451 | 25° C | 73% | 1004.1 hPa | 0 mm | - | 0 W/m² | - |
| 1777945148 | 25° C | 73% | 1004 hPa | 0 mm | - | 0 W/m² | - |
| 1777944845 | 25° C | 73% | 1004.2 hPa | 0 mm | - | 0 W/m² | - |
| 1777944543 | 25° C | 73% | 1004.1 hPa | 0 mm | - | 0 W/m² | - |
| 1777944240 | 25° C | 72% | 1003.9 hPa | 0 mm | - | 0 W/m² | - |
| 1777943936 | 25° C | 72% | 1004.2 hPa | 0 mm | - | 1 W/m² | - |
| 1777943633 | 25° C | 72% | 1004 hPa | 0 mm | - | 1 W/m² | - |
| 1777943330 | 25° C | 71% | 1004 hPa | 0 mm | - | 3 W/m² | - |
| 1777943025 | 25.56° C | 72% | 1003.9 hPa | 0 mm | - | 5 W/m² | - |
| 1777942722 | 25.56° C | 71% | 1003.9 hPa | 0 mm | - | 10 W/m² | - |
| 1777942419 | 25.56° C | 71% | 1004 hPa | 0 mm | - | 15 W/m² | - |
| 1777942116 | 25.56° C | 71% | 1004 hPa | 0 mm | - | 18 W/m² | - |
| 1777941812 | 25.56° C | 71% | 1004.3 hPa | 0 mm | - | 22 W/m² | - |
| 1777941510 | 25.56° C | 70% | 1004.1 hPa | 0 mm | - | 25 W/m² | - |
| 1777941207 | 25.56° C | 70% | 1004.1 hPa | 0 mm | - | 31 W/m² | - |
| 1777940903 | 25.56° C | 71% | 1004.4 hPa | 0 mm | - | 36 W/m² | - |
| 1777940600 | 25.56° C | 70% | 1004.3 hPa | 0 mm | - | 37 W/m² | - |
* Rain latest hour (hover to see other rain measurements)
** Current wind speed in m/s (hover to see current wind gust speed)